Wind_Speed
15 14 14 15 15 15 14 13 11 11 12 12 13 13 13 13 14 14 14 13 13 12 12 13 13 13 13 11 10 10 10 11 11 11 12 13 13 14 15 16 16 17 17 18 19 19 20 20 21 21 22 23 24 24 25 26 26 27 28 28 29 30 30 31 31 32 35 36 37 39 41 42 42 41 44 50 52 54 58 61 62 63 62 61 59
16 15 15 16 16 16 15 14 13 12 12 13 13 14 14 14 14 15 15 14 14 14 14 14 14 13 13 12 11 11 12 13 13 14 15 15 16 16 17 18 18 19 19 20 20 21 21 21 22 23 24 24 24 25 25 26 26 27 28 28 30 30 31 31 31 33 35 37 38 40 42 43 42 42 46 50 52 55 58 61 62 62 61 59 58
17 17 16 16 17 17 17 16 15 13 13 13 14 14 15 15 16 16 15 15 15 15 15 15 15 14 14 13 13 13 14 15 15 16 17 17 18 18 19 20 20 20 21 21 22 22 22 22 23 25 26 26 26 26 26 26 26 27 28 28 29 30 31 32 33 34 35 37 39 41 43 44 42 43 47 50 52 56 59 61 62 61 59 58 57
19 18 17 17 17 18 18 18 17 15 14 14 14 15 15 16 16 16 16 16 16 16 16 16 16 15 15 14 15 16 16 16 17 18 18 19 19 20 20 21 21 21 21 22 22 23 23 23 24 25 27 27 28 27 27 27 28 28 29 30 30 31 32 33 33 34 36 38 40 42 44 43 42 44 48 51 53 57 60 61 61 59 58 57 57
20 20 19 18 18 19 19 19 19 17 16 15 15 15 16 16 17 17 17 17 17 17 18 18 17 16 16 16 17 18 18 18 18 18 19 19 20 20 21 21 21 21 21 22 22 22 23 23 25 26 28 28 29 28 28 28 29 30 30 31 31 31 32 33 34 35 37 38 40 42 43 42 41 44 48 51 54 58 61 61 59 57 56 56 57
20 21 20 19 19 19 19 20 20 19 18 17 16 16 16 17 17 17 17 17 18 18 19 19 18 17 17 18 19 20 19 19 19 19 19 19 20 20 21 21 21 21 22 22 22 22 22 23 25 27 28 29 29 29 29 29 29 30 31 31 32 32 32 33 35 36 38 40 41 42 42 40 41 44 48 51 55 59 61 60 57 55 55 55 56
20 21 21 21 20 20 20 21 21 21 20 19 17 16 16 17 17 17 17 18 18 19 19 19 19 19 19 20 20 20 19 19 19 19 19 19 20 20 21 21 21 21 22 22 23 23 24 25 27 28 28 29 29 29 29 30 30 30 31 32 32 33 33 34 36 38 39 41 42 42 41 40 42 45 48 53 57 60 61 59 55 53 53 54 55
21 21 22 23 22 21 21 21 22 22 21 20 18 17 17 17 17 17 18 18 19 20 20 20 20 20 21 21 21 20 20 20 20 20 19 20 20 21 21 21 21 22 22 23 24 25 26 26 28 28 29 29 29 29 29 30 30 31 31 32 32 33 34 35 36 38 40 41 42 42 41 41 43 46 50 54 58 60 60 58 53 50 51 53 54
21 21 22 23 23 22 21 21 22 22 22 21 20 19 18 18 18 18 18 19 19 20 21 21 21 21 21 22 21 21 20 21 20 19 19 20 21 21 21 21 22 23 23 24 25 25 25 26 27 28 29 29 29 29 30 30 30 31 31 32 33 34 34 36 37 38 40 41 42 43 43 43 46 49 52 55 58 59 59 57 52 50 50 52 54
21 21 22 24 24 23 21 21 22 22 22 22 21 21 20 19 18 18 18 19 19 20 21 21 21 21 21 22 22 21 21 22 21 19 18 19 21 21 22 23 23 23 23 23 24 25 25 26 27 29 29 29 29 29 30 30 31 32 32 33 34 35 36 37 38 39 41 42 43 44 45 46 49 51 53 55 58 58 58 55 51 49 50 50 52
22 22 23 24 25 23 22 22 22 22 22 23 22 22 21 21 20 19 19 19 20 20 21 21 21 22 22 22 22 22 23 23 22 20 19 20 21 22 23 23 23 23 23 24 25 26 26 27 27 29 29 30 30 30 31 31 31 33 34 35 36 36 37 38 39 41 42 42 43 45 47 49 51 52 53 55 57 57 56 54 51 49 49 50 51
22 22 23 24 25 24 23 23 22 22 22 23 23 23 23 22 22 21 21 21 21 21 21 21 21 22 22 22 22 23 23 24 24 23 21 21 21 22 22 23 23 24 24 25 26 27 27 27 28 29 29 29 30 32 32 32 32 34 36 36 37 38 38 39 40 42 43 44 44 46 49 50 50 52 54 55 56 56 54 53 51 49 49 50 51
21 22 23 24 24 25 24 24 23 23 23 23 23 23 23 23 23 23 22 22 22 22 22 21 22 22 23 24 24 23 23 24 26 25 24 23 22 21 21 22 23 24 25 27 28 29 28 27 28 29 30 30 31 32 33 33 34 35 37 39 39 40 40 41 41 43 45 46 46 48 50 49 49 53 55 55 56 55 53 52 50 49 49 50 51
21 21 22 23 24 25 25 24 24 24 24 23 23 23 24 24 24 24 24 24 23 23 23 23 23 24 24 24 24 24 24 25 26 26 26 26 24 21 21 22 23 25 26 28 29 29 29 28 29 29 30 31 32 33 34 35 35 36 37 39 40 40 41 42 43 45 47 48 48 48 47 47 50 54 55 55 55 54 52 52 51 49 49 50 51
21 22 21 22 24 25 25 25 25 24 24 23 23 23 24 24 25 25 25 25 24 24 25 25 25 25 25 25 25 25 25 25 25 26 27 26 24 22 22 23 24 26 28 29 29 29 29 29 30 30 31 32 33 34 35 36 37 37 38 39 40 40 41 41 42 44 46 48 47 46 46 48 52 54 54 55 55 55 54 53 51 48 48 49 51
21 22 21 22 23 25 25 25 24 24 24 23 23 24 24 25 26 26 26 26 25 26 26 26 27 26 26 25 25 26 26 26 26 26 27 26 24 24 25 26 26 28 30 30 30 29 30 30 31 32 33 34 35 36 37 37 38 39 39 40 40 41 41 40 41 42 44 46 45 45 47 50 53 54 53 54 56 56 55 52 50 48 48 49 50
21 21 20 22 23 25 25 24 24 24 24 23 24 24 25 26 27 28 27 26 26 26 26 27 27 27 26 25 25 26 26 26 26 26 26 25 25 26 29 29 29 30 31 31 31 31 31 32 33 34 35 35 36 37 38 39 40 40 41 42 42 42 42 42 42 42 43 44 45 47 49 52 54 53 53 55 56 56 55 52 49 48 48 48 49
20 20 20 21 23 25 25 24 24 23 23 23 24 25 26 27 28 28 27 26 26 26 27 27 26 26 26 25 25 26 26 26 26 26 26 27 28 29 30 30 30 31 32 32 32 32 32 33 33 35 36 36 37 38 40 41 42 42 43 43 43 43 44 44 43 43 44 45 47 49 51 53 54 53 54 55 56 56 55 52 49 48 48 49 49
20 20 20 21 22 23 23 22 22 23 23 23 24 25 26 27 27 27 26 26 26 27 27 27 26 27 27 26 26 26 26 26 26 26 27 29 31 31 31 30 30 31 32 32 33 33 33 33 34 35 38 38 38 38 40 42 43 43 43 43 43 44 45 45 45 45 46 48 49 51 52 54 54 53 54 55 56 56 54 51 48 48 48 49 49
19 20 21 21 22 21 20 20 21 22 23 23 23 24 25 25 25 26 26 27 27 28 27 27 27 28 28 27 26 26 27 27 27 28 29 31 31 31 31 30 31 32 32 33 34 34 34 34 34 36 39 40 39 39 40 41 41 41 41 42 43 44 46 47 46 47 48 50 51 51 53 53 53 53 54 55 56 55 52 49 47 47 48 48 49
17 19 21 20 20 20 19 18 20 22 23 23 23 23 24 25 25 26 27 28 28 28 27 27 28 28 28 27 26 26 28 28 27 28 30 31 31 30 30 31 32 33 33 33 34 35 35 35 35 37 39 41 41 41 40 40 39 39 41 42 43 45 46 46 46 48 50 51 51 52 52 52 52 52 54 55 55 54 51 48 47 47 47 48 48
15 18 20 19 19 19 18 18 20 22 23 23 23 23 24 26 26 27 28 28 28 28 28 27 27 27 27 27 27 27 28 28 27 28 30 32 32 31 31 32 33 34 34 34 35 36 37 37 37 37 39 40 41 42 41 40 39 41 43 44 44 45 45 45 46 48 49 50 51 51 51 51 51 52 53 54 54 54 51 48 47 47 47 48 48
14 17 18 17 17 18 20 21 22 24 24 24 24 25 26 27 28 28 28 28 28 28 27 27 27 27 28 29 28 28 28 27 27 28 32 33 32 32 34 34 35 35 35 36 37 38 38 39 39 39 39 40 40 40 39 40 41 43 44 44 44 45 45 45 46 48 49 50 50 50 50 51 52 53 54 54 54 53 51 48 47 47 47 48 49
14 16 17 18 18 19 23 25 24 24 24 25 26 27 28 29 29 27 26 27 28 28 28 29 29 29 29 29 29 29 29 28 27 29 33 35 34 34 35 36 37 37 37 38 40 40 40 40 40 40 40 40 39 39 39 41 43 44 44 44 45 45 46 46 47 48 49 49 49 49 50 51 52 54 54 54 53 52 49 47 46 47 47 48 49
17 17 19 20 21 22 24 25 25 23 23 25 28 29 31 30 28 27 28 29 30 31 31 29 29 29 28 28 29 29 30 30 29 30 33 35 36 36 38 38 39 39 40 41 42 43 42 42 41 40 39 39 39 40 41 44 45 46 45 45 45 46 47 47 48 48 48 49 49 49 50 52 54 54 53 53 53 51 48 46 45 46 46 47 48
21 19 21 23 25 25 25 26 26 26 26 28 30 32 33 32 29 29 31 31 30 30 29 28 29 29 29 29 30 31 32 32 31 31 34 37 38 38 39 40 40 41 42 43 44 44 43 42 40 39 39 39 40 42 43 45 46 46 45 45 46 47 48 48 48 48 48 48 49 50 53 54 55 53 52 52 51 49 47 45 45 45 46 46 46
25 23 24 26 27 27 27 27 27 27 28 30 32 32 32 32 31 30 30 30 28 27 28 30 31 31 30 31 32 33 34 34 34 34 36 38 40 40 40 41 42 43 44 45 45 44 42 40 39 39 41 42 43 44 46 46 46 46 46 46 47 48 48 49 48 47 47 49 51 53 55 55 55 53 52 51 49 48 47 45 45 45 45 45 46
26 26 27 27 28 30 30 30 29 28 29 31 32 30 29 30 31 30 29 28 28 29 31 33 33 31 32 33 35 36 37 37 38 38 38 39 40 42 42 43 44 44 45 45 44 43 41 40 40 41 43 45 46 47 48 48 47 46 47 47 48 48 49 49 48 47 48 51 53 55 56 55 54 52 50 49 48 46 46 45 45 45 44 45 46
28 28 27 27 29 30 31 31 31 32 32 33 33 32 30 30 30 28 27 28 30 32 33 34 34 34 36 37 37 38 39 40 41 41 41 41 41 42 43 44 44 44 44 44 43 43 42 41 41 42 44 46 47 48 48 48 47 47 48 49 49 48 48 48 48 49 52 54 55 56 55 54 52 50 48 47 47 46 45 45 45 44 44 45 45
29 29 27 27 29 31 31 31 31 31 31 31 31 30 29 29 29 28 29 31 33 34 36 37 38 38 38 39 40 41 41 42 43 44 44 45 44 44 43 43 44 44 44 44 43 42 42 41 42 44 46 47 47 47 47 47 48 48 49 49 48 47 47 48 51 54 56 57 57 55 53 51 49 48 47 46 46 45 45 45 45 45 45 45 45
30 30 29 28 29 31 31 32 32 32 32 32 32 31 30 31 33 34 34 35 36 37 38 39 40 39 39 40 42 43 43 44 46 47 46 45 45 44 43 43 44 44 43 41 40 41 42 44 46 47 47 46 46 47 48 48 49 49 48 48 47 48 50 53 56 57 58 57 55 52 50 48 47 46 45 45 45 45 44 45 45 45 45 45 45
32 32 31 30 30 31 32 33 34 34 33 33 34 34 34 35 37 38 38 38 38 38 39 41 42 42 41 43 45 46 47 48 48 47 45 43 43 44 44 44 44 42 39 38 40 43 45 47 48 47 47 47 47 48 48 49 49 48 48 48 49 51 54 57 58 57 56 53 51 49 47 46 45 44 44 44 44 44 44 45 45 45 45 45 45
35 34 34 34 33 33 34 35 35 35 36 36 36 37 38 39 40 40 40 41 41 41 42 44 44 45 45 46 48 49 49 48 47 46 45 44 43 43 42 42 42 41 41 44 47 49 48 48 47 46 47 48 49 49 50 50 50 50 50 51 52 53 56 57 57 55 52 50 48 47 46 45 44 44 44 44 44 44 44 45 45 46 45 45 46
38 37 37 37 36 36 37 37 37 37 38 39 39 40 41 42 42 42 43 44 44 45 46 47 48 48 48 48 48 48 46 45 44 44 45 44 44 43 44 44 45 46 48 51 52 52 51 50 49 48 49 49 49 50 50 51 51 52 51 52 53 55 58 57 55 52 50 48 48 47 46 45 44 44 43 43 44 44 44 45 45 46 45 45 45
40 40 40 40 40 40 39 39 40 40 41 42 42 43 44 46 46 46 47 48 49 50 49 49 49 48 47 47 46 46 45 45 46 47 47 47 47 48 49 49 49 50 51 52 53 53 53 53 52 51 50 49 49 49 50 51 52 53 54 55 56 57 57 55 52 50 49 48 47 47 46 45 45 45 44 44 44 44 44 44 45 45 45 45 44
42 42 42 42 43 44 44 45 46 46 47 47 47 47 48 50 50 51 51 50 51 51 50 48 48 48 48 49 50 50 50 51 52 52 52 51 51 51 51 51 51 51 52 52 53 53 52 52 51 50 50 49 49 50 52 54 56 57 58 58 57 56 54 52 51 51 50 48 47 46 46 46 46 45 45 45 45 45 45 45 45 45 45 45 44
46 46 46 47 47 48 50 52 53 53 52 51 50 51 51 52 53 54 54 52 51 51 51 51 52 52 51 52 52 53 54 55 54 53 53 52 52 52 52 53 53 53 52 52 51 51 50 49 49 49 50 51 52 54 55 56 57 57 57 56 55 53 52 51 51 50 50 49 48 47 46 46 46 46 46 46 45 45 45 45 45 45 45 45 44
47 48 49 50 51 52 53 54 55 54 53 51 51 51 52 52 53 55 55 55 55 55 55 55 55 54 53 53 52 52 52 52 52 52 52 52 52 52 52 52 52 51 51 51 51 51 51 51 51 52 53 54 55 56 56 56 56 56 55 54 53 52 51 51 50 49 49 49 48 48 47 46 46 46 47 46 46 46 46 46 46 46 45 44 44
42 44 47 50 52 54 55 55 56 56 56 55 55 56 55 55 55 56 56 55 55 54 54 54 54 53 52 52 51 50 50 50 51 51 51 51 50 50 50 50 49 49 50 51 51 52 52 53 53 54 54 55 55 55 55 55 54 54 53 52 52 51 50 50 50 49 48 48 48 48 48 48 47 47 47 47 47 47 47 46 47 46 45 45 44
38 39 41 44 46 49 51 52 54 55 56 57 57 56 55 54 53 53 52 52 51 50 50 50 50 50 50 50 50 50 50 50 50 50 49 49 49 49 49 49 49 50 51 52 52 53 53 53 53 53 53 53 53 52 52 52 52 51 51 51 50 50 50 49 49 49 49 49 49 49 49 49 49 48 48 48 48 48 48 47 47 47 46 45 45
42 41 40 41 42 43 44 46 47 48 49 49 49 49 49 48 48 48 48 48 48 49 49 48 48 48 48 48 48 48 48 48 48 48 48 49 49 49 50 51 51 52 52 53 53 53 53 53 52 52 51 51 51 51 51 50 50 50 50 50 50 50 50 51 51 51 51 51 52 51 51 51 51 51 50 50 50 50 49 49 48 48 47 46 45
46 45 44 44 44 45 45 46 46 46 47 47 47 47 47 47 47 47 47 47 47 47 47 47 47 46 46 46 47 47 47 48 49 49 49 50 50 51 52 53 53 53 53 52 52 52 52 51 50 50 50 50 50 51 50 50 50 51 51 51 52 52 53 53 54 54 53 53 53 53 53 53 53 53 53 52 51 51 51 50 49 49 48 47 46
47 47 47 46 46 46 46 47 47 47 47 47 46 46 46 46 46 45 45 45 45 46 46 46 47 47 47 47 47 47 48 49 49 50 50 51 51 51 51 52 52 51 51 51 50 50 50 49 49 49 50 50 51 51 51 51 52 52 53 53 54 55 55 55 55 54 54 54 54 54 55 54 55 55 55 54 53 53 53 52 51 50 49 47 46
46 46 46 46 45 45 45 45 45 45 45 45 45 45 45 45 46 46 46 46 46 46 46 46 47 47 47 48 48 48 49 49 49 49 49 50 50 50 49 49 48 48 48 48 49 49 48 47 48 49 50 50 51 52 52 53 54 54 55 55 56 57 57 57 56 56 57 57 57 57 56 56 56 56 56 56 55 54 54 53 52 51 49 47 45
45 45 45 44 44 43 43 43 44 44 44 45 45 45 45 45 45 46 46 46 46 46 46 46 47 47 48 48 49 49 49 49 49 48 48 48 48 48 48 47 47 47 48 48 49 49 48 48 49 50 50 51 52 53 54 55 55 56 57 57 57 58 58 58 59 59 60 60 60 60 59 59 59 58 57 57 57 56 56 55 54 52 51 49 46
44 45 46 45 45 44 44 44 45 45 45 45 46 46 45 45 45 45 46 46 46 46 46 46 47 47 47 48 48 48 48 48 48 48 47 47 47 47 47 47 47 48 49 50 50 51 50 50 51 52 53 53 54 55 56 57 57 58 59 58 57 57 58 58 58 58 58 58 59 59 60 60 61 60 60 60 59 58 58 57 55 54 52 50 48
42 42 43 44 44 44 44 44 44 44 44 44 44 44 44 44 44 44 44 44 45 45 45 46 46 46 46 46 46 46 46 46 46 46 46 46 46 46 46 47 48 48 49 50 52 53 53 53 54 54 55 56 56 57 58 59 59 59 59 57 56 55 55 54 53 52 52 52 52 53 54 55 57 58 59 59 59 59 59 58 57 55 53 51 49
40 40 40 40 41 41 41 41 41 41 41 42 42 41 41 41 41 42 42 42 43 43 43 44 44 44 44 44 44 44 44 44 44 44 44 45 45 45 46 47 48 49 50 51 52 54 55 55 55 55 56 57 58 58 59 59 58 57 56 54 53 52 51 49 47 46 46 46 46 46 48 49 50 52 53 53 54 56 56 56 56 54 52 51 50
39 40 40 39 40 40 40 40 40 40 40 40 40 40 40 40 40 41 41 42 42 42 42 43 43 43 43 43 43 42 42 42 42 43 43 44 45 46 46 47 49 51 52 52 53 54 55 56 56 56 56 56 56 56 56 55 54 52 50 49 48 47 46 45 44 44 44 44 45 45 46 46 47 47 47 47 47 48 50 50 50 50 49 49 48
39 39 39 40 40 40 40 40 40 40 40 40 40 40 41 41 41 42 42 42 42 43 43 43 43 43 42 42 42 42 42 42 43 43 44 45 47 48 49 49 50 51 53 54 54 54 55 56 56 56 55 54 53 52 51 50 49 48 45 44 44 44 44 44 44 44 44 45 45 46 46 46 45 43 42 41 40 40 42 43 43 44 44 44 44
39 39 40 40 40 40 41 41 41 41 41 41 41 42 42 42 43 43 44 44 44 44 44 43 43 42 42 42 42 42 43 44 45 46 47 48 49 50 51 51 52 52 53 54 54 54 54 54 54 53 52 50 49 47 46 45 44 44 42 41 42 43 44 44 44 43 43 44 44 45 46 45 41 37 35 34 34 33 34 35 36 37 38 39 40
Wind_Direction
239 244 246 243 240 238 236 238 242 250 255 255 253 251 251 252 252 251 252 253 259 266 274 281 285 284 282 281 284 286 288 287 286 286 286 287 290 293 296 299 302 305 308 311 312 313 315 316 317 317 316 315 314 313 313 314 315 316 316 316 316 316 315 316 315 315 316 317 318 319 320 320 321 323 329 331 332 332 332 332 330 329 329 328 329
241 244 246 244 242 240 238 238 240 245 253 256 256 255 255 256 257 256 256 257 261 267 274 280 282 281 281 283 287 290 290 289 289 288 288 288 290 292 294 297 300 303 306 308 309 310 311 313 315 316 316 315 314 313 313 314 314 315 315 315 315 314 314 314 315 315 316 317 318 319 319 320 321 325 330 332 332 333 333 332 330 329 329 328 329
240 243 246 245 243 243 241 240 240 243 250 256 258 259 259 259 260 259 260 260 263 268 274 278 279 277 278 282 286 288 289 289 290 290 290 290 291 292 294 296 298 302 304 306 308 308 308 309 312 315 316 315 314 313 313 313 313 313 313 314 314 315 316 316 317 317 317 317 318 319 319 320 322 327 331 332 333 334 333 332 330 330 329 329 330
240 242 245 246 244 243 243 243 243 243 247 254 259 261 262 262 262 261 262 263 266 271 274 276 276 275 277 282 285 287 288 289 290 291 291 291 291 293 294 295 298 301 304 306 306 307 307 309 311 314 315 315 314 314 313 313 314 314 315 315 317 317 318 318 317 317 316 317 318 318 320 321 324 328 331 333 334 334 333 331 330 330 329 329 331
241 241 244 246 244 244 243 244 245 245 247 252 257 261 263 264 264 264 264 266 269 271 273 274 274 274 278 283 287 288 289 290 291 291 291 292 293 294 295 297 300 302 304 305 305 305 306 308 311 314 315 315 314 314 313 314 315 315 316 317 318 318 318 317 316 316 316 317 318 319 320 322 326 329 332 334 335 334 333 332 331 330 329 330 332
243 241 242 244 245 244 244 244 245 246 248 250 254 259 263 265 266 266 266 267 268 269 271 272 273 274 278 283 286 288 289 291 292 291 292 293 295 296 298 299 300 302 304 304 304 304 304 306 309 312 313 313 313 313 313 313 314 315 317 317 317 317 316 316 316 316 317 318 319 320 320 322 325 328 332 334 334 334 334 333 331 329 330 331 333
247 243 242 243 245 245 244 245 246 247 248 251 254 258 263 266 267 267 268 268 269 270 271 272 274 276 280 284 285 287 289 290 290 291 293 296 297 298 299 299 299 301 302 303 304 303 302 303 306 308 310 311 311 311 312 313 314 315 317 317 316 316 316 316 316 317 318 319 319 319 319 321 324 328 332 334 334 333 334 333 331 329 330 331 332
250 246 243 243 244 245 245 246 247 249 250 252 255 258 262 266 267 268 269 270 270 272 272 273 275 278 281 283 285 287 288 288 288 291 296 299 300 300 299 298 298 299 301 304 304 304 303 303 304 305 307 308 309 310 311 312 315 316 317 316 315 315 315 315 316 316 317 318 318 318 318 320 323 327 331 333 332 333 333 333 331 330 330 331 331
254 250 245 243 243 245 246 248 249 251 252 254 255 258 261 264 267 269 270 271 272 273 273 275 277 279 282 284 285 286 286 286 289 294 299 300 299 299 297 295 296 298 301 304 305 304 303 303 303 303 305 306 307 308 310 313 315 316 316 315 315 315 314 314 315 316 317 317 317 316 317 320 322 325 328 331 332 333 333 332 331 331 331 331 332
256 253 248 244 243 243 246 248 250 252 254 255 256 258 260 263 266 269 270 272 274 274 275 277 279 280 283 284 284 285 285 288 292 296 298 297 296 295 294 294 295 296 299 301 302 302 302 302 302 302 303 305 306 307 310 313 315 315 315 315 315 314 314 314 314 315 316 316 316 316 316 319 321 323 327 330 332 333 332 331 332 331 331 332 333
256 254 250 247 243 242 244 247 250 252 254 256 257 258 260 263 265 268 270 272 273 274 276 278 280 282 283 283 283 285 287 290 293 294 295 294 293 292 291 293 294 294 295 296 297 298 300 302 302 302 302 304 306 308 310 313 314 314 315 315 315 314 314 314 314 314 315 316 316 315 316 318 321 324 327 331 332 332 331 331 332 332 331 332 333
258 255 253 250 245 243 243 245 248 251 254 257 258 259 261 263 265 267 269 271 272 274 276 278 280 282 283 283 284 285 288 291 292 293 294 294 293 291 290 291 292 293 293 292 293 295 298 301 301 300 302 305 306 308 311 313 314 315 315 315 315 314 313 313 313 314 314 315 316 315 317 320 322 325 328 331 332 331 330 331 332 331 331 332 333
261 258 256 254 249 246 244 245 248 250 252 256 259 261 263 264 266 267 269 271 272 274 276 278 280 282 283 284 285 286 288 289 291 293 294 294 293 291 288 288 288 290 291 291 292 294 297 299 299 299 302 305 306 308 311 313 315 315 316 315 315 314 314 313 313 313 314 316 317 317 319 322 324 325 327 331 332 331 331 331 331 331 332 333 334
261 258 257 255 252 248 245 245 247 249 251 255 259 262 264 265 267 268 269 271 273 275 277 279 280 281 282 283 285 285 286 286 289 292 293 293 293 291 287 286 287 288 289 290 293 295 297 298 298 299 302 304 306 309 311 314 316 316 315 315 314 314 313 313 313 313 314 316 317 317 320 322 324 325 327 330 331 331 331 331 331 331 332 333 334
260 257 254 253 252 250 247 246 248 250 252 256 259 263 266 267 267 268 269 271 273 275 278 279 280 281 282 283 284 284 284 284 286 287 289 291 292 290 287 286 287 288 289 291 294 296 298 298 299 301 303 305 308 310 313 315 316 316 315 313 313 312 311 311 311 312 313 314 315 317 320 322 323 325 327 329 330 331 332 331 331 331 332 334 335
258 256 252 249 249 249 248 247 248 251 253 256 259 262 265 266 267 268 269 271 273 275 276 278 280 281 282 283 283 283 284 285 285 286 288 289 289 289 288 289 291 291 291 293 296 298 298 300 301 303 306 309 311 312 313 314 315 315 314 313 311 311 310 309 309 310 311 313 314 318 321 322 323 324 326 328 330 331 332 331 330 330 332 334 335
257 253 250 249 249 249 249 248 248 251 253 256 259 261 264 266 266 267 269 270 272 273 274 276 279 280 281 282 284 285 285 286 287 287 287 287 286 288 290 292 293 292 293 295 297 298 300 302 303 306 308 310 311 312 313 314 315 315 313 312 312 311 310 310 310 312 313 313 315 318 320 321 323 324 325 327 329 331 331 330 329 330 331 333 335
257 253 249 249 249 250 250 251 251 251 253 255 258 261 264 266 267 269 270 272 272 273 274 275 278 279 280 280 281 282 283 285 285 285 287 288 289 289 291 292 292 292 293 296 298 300 301 303 305 306 307 309 310 311 313 314 314 314 313 313 313 312 311 311 312 313 314 314 316 319 320 321 323 324 325 327 328 330 329 329 328 329 331 333 335
255 252 249 249 249 250 250 253 254 254 254 254 257 260 263 265 268 271 272 272 271 272 273 275 276 276 276 277 278 279 281 282 283 284 287 288 290 291 292 293 293 293 295 297 299 300 302 303 304 306 306 307 309 311 312 313 314 314 314 314 313 312 312 313 314 315 315 316 318 320 321 322 323 324 325 326 328 328 328 327 327 329 331 332 334
262 260 258 256 255 254 253 253 253 253 253 254 256 259 262 265 268 270 271 270 270 270 272 272 273 273 275 277 277 278 280 282 283 286 287 288 289 291 294 295 294 294 296 298 298 299 301 302 304 305 305 306 308 310 311 312 313 314 314 314 314 313 314 316 316 315 315 317 319 320 321 321 322 322 324 326 326 326 326 325 325 327 329 331 333
281 277 274 268 265 264 260 255 251 250 252 254 257 261 264 266 267 267 268 268 268 268 269 270 271 273 274 276 276 278 281 283 285 287 288 288 290 292 293 294 294 294 296 297 298 299 300 302 304 304 304 306 308 309 311 312 313 313 313 313 313 313 314 315 315 314 315 316 318 319 320 320 320 321 324 325 325 325 324 323 324 326 327 330 332
293 284 279 275 272 270 266 258 253 252 254 257 259 260 262 264 264 265 265 266 267 268 269 270 271 271 273 276 278 280 282 284 287 288 287 288 290 291 292 292 292 293 295 296 297 298 300 301 302 302 303 305 306 309 310 311 312 312 313 313 313 313 314 314 313 313 314 315 317 318 318 319 320 321 323 324 323 323 323 322 323 325 327 329 331
284 281 281 278 275 273 269 262 257 255 257 260 261 261 261 260 260 261 263 265 267 268 269 269 269 271 274 278 280 281 282 283 286 287 286 287 289 291 291 291 292 293 295 296 297 297 299 300 301 301 302 303 305 306 308 309 310 312 312 312 312 312 313 313 312 313 313 314 315 316 316 318 320 322 323 323 322 321 321 321 322 324 326 328 330
275 278 281 280 277 272 266 262 260 260 261 264 264 263 261 260 259 261 264 266 266 266 266 267 270 273 275 277 279 280 282 283 284 284 285 287 289 290 290 291 293 295 296 297 297 297 298 299 299 300 301 302 303 304 305 307 309 310 310 310 311 312 313 312 311 312 312 312 313 315 316 319 321 321 321 321 320 319 320 320 321 323 325 328 330
277 277 277 277 275 272 268 267 268 271 273 271 269 268 267 266 265 265 264 263 264 265 266 270 273 274 275 276 278 280 281 282 283 284 285 287 289 290 291 293 295 296 297 297 297 297 298 298 298 299 299 299 300 301 303 306 308 309 309 310 310 310 311 311 310 310 311 311 312 315 317 319 321 320 319 319 318 318 318 318 319 321 325 327 330
276 277 277 275 274 272 271 269 268 268 269 269 269 268 268 270 272 270 267 265 264 265 268 272 275 276 275 276 278 280 281 283 285 286 286 287 288 290 292 293 294 295 296 296 296 296 296 295 295 296 296 296 297 298 302 306 307 307 308 308 308 309 309 309 309 309 309 310 312 315 318 319 319 318 317 316 316 316 316 317 318 320 323 326 329
274 274 272 270 270 271 273 274 270 266 266 268 269 268 267 268 269 269 270 270 267 266 270 275 278 278 276 277 280 282 283 286 287 286 286 288 290 291 292 293 294 295 295 295 295 294 293 292 293 294 294 293 294 297 301 305 306 306 307 307 307 307 307 307 308 308 308 309 312 316 318 319 318 316 315 314 314 314 315 315 317 319 322 325 328
270 272 271 271 273 275 278 278 275 272 272 272 271 269 268 266 264 263 266 271 271 270 274 277 278 276 275 279 282 285 286 288 289 288 289 290 291 293 293 294 294 294 295 294 294 292 291 291 292 291 290 290 294 298 303 306 307 306 306 306 306 305 305 305 305 305 306 308 312 316 317 317 315 314 313 312 312 312 313 314 316 318 322 324 327
269 270 270 272 275 275 274 272 271 272 274 274 272 269 266 265 264 265 269 273 274 275 277 279 279 278 280 282 284 285 288 289 290 291 292 293 293 293 294 294 294 293 292 291 290 289 288 288 288 287 288 291 297 301 304 306 306 305 305 304 304 303 302 302 303 304 307 310 313 315 315 314 312 311 311 311 311 311 312 313 314 317 320 323 325
272 271 270 272 273 272 270 269 270 271 272 272 273 272 269 267 267 270 273 274 275 277 278 279 279 280 282 284 285 287 289 290 291 292 293 294 294 293 293 292 292 291 289 287 286 285 285 285 287 289 292 297 300 302 303 304 304 303 303 302 302 300 300 301 304 306 308 310 312 312 312 311 310 310 309 309 310 310 311 312 314 316 319 321 324
272 272 273 274 274 273 273 274 274 275 274 273 273 273 273 273 273 274 275 275 276 278 279 279 279 280 282 284 286 288 288 290 291 293 294 295 294 293 292 290 288 286 285 283 282 283 286 289 293 296 298 301 301 301 301 301 301 301 300 300 299 299 300 302 304 305 307 309 309 309 309 309 308 308 308 308 309 309 310 311 313 315 317 319 322
271 274 275 274 274 275 275 274 274 275 275 274 273 273 274 275 275 277 278 278 278 279 280 281 281 281 283 284 286 287 288 290 291 290 291 293 293 291 290 287 282 279 278 281 285 290 294 296 298 299 300 300 299 298 298 298 298 298 297 297 297 299 301 304 305 305 306 307 307 308 307 307 307 306 307 307 308 308 309 310 311 313 315 318 320
270 271 272 272 272 272 272 271 271 272 273 273 273 274 276 277 278 279 280 279 279 280 280 281 281 282 283 283 284 285 286 287 287 286 286 287 287 285 283 280 276 275 279 286 293 298 299 299 299 299 298 298 298 297 297 297 297 297 296 296 297 300 303 306 306 306 306 306 307 307 306 306 305 305 306 307 307 307 308 309 311 312 314 316 318
267 267 268 269 268 268 269 270 271 272 273 273 274 274 275 276 277 277 277 277 277 277 277 278 278 278 279 280 280 280 281 281 282 282 281 281 280 280 282 283 284 286 289 294 298 300 301 301 300 298 298 297 297 298 298 298 297 297 297 297 298 301 304 305 305 305 305 305 306 305 305 304 304 304 305 305 306 307 307 308 310 311 313 315 317
267 267 267 266 265 265 266 268 270 271 272 273 272 271 271 272 273 273 274 275 276 275 276 276 276 276 277 278 278 278 278 280 282 282 280 281 283 286 289 291 293 294 296 297 298 298 299 299 299 299 299 299 298 298 298 297 297 297 298 299 300 302 303 303 303 303 304 304 304 304 304 303 303 303 304 304 305 305 306 307 309 310 312 314 316
267 266 266 265 264 264 265 267 269 272 272 272 272 271 272 273 273 274 275 275 275 275 274 275 276 278 279 279 278 278 279 280 281 281 281 284 287 290 292 293 294 295 296 296 296 297 298 298 299 300 300 299 297 296 296 296 297 297 299 300 301 301 301 301 301 301 302 302 302 301 301 301 301 302 302 303 304 304 305 306 307 309 310 312 313
267 267 267 267 265 264 265 267 270 271 272 271 271 272 272 273 274 273 273 273 274 275 275 276 278 279 278 277 277 277 277 278 279 280 282 285 287 289 291 292 293 294 295 295 296 298 298 299 299 297 296 295 294 294 294 295 296 297 298 299 300 300 300 300 300 301 301 301 300 300 299 300 300 300 301 302 302 303 304 304 305 307 308 309 310
269 269 270 269 268 267 266 266 268 269 269 269 270 271 271 272 273 272 271 271 273 276 277 277 278 279 278 277 277 277 278 279 281 283 285 286 288 289 290 292 293 294 295 296 297 298 298 298 297 296 295 295 295 295 296 296 297 298 299 299 299 300 299 299 299 299 299 300 300 299 299 299 299 299 299 300 300 301 301 302 303 304 305 306 307
271 271 270 270 269 269 267 266 265 265 265 267 269 270 271 272 273 273 273 274 275 275 276 276 277 278 279 279 280 281 283 285 286 287 288 288 289 290 291 292 293 294 296 296 297 296 296 296 296 296 296 295 295 296 296 297 297 298 298 298 298 298 298 298 298 297 297 298 298 298 299 299 298 298 298 298 298 298 298 299 300 301 302 303 304
269 267 267 267 267 267 266 265 265 264 265 266 267 269 269 270 271 271 272 273 274 275 276 278 279 280 282 283 284 285 286 287 287 288 288 289 290 290 291 292 293 294 294 295 294 294 294 294 295 295 295 295 296 296 296 296 296 297 297 297 297 297 297 297 297 297 297 297 297 297 297 297 297 296 296 295 295 296 296 296 297 298 299 300 301
271 270 268 267 267 267 267 268 268 268 268 269 269 270 271 272 273 274 275 276 278 279 280 282 283 283 284 285 285 286 286 287 287 288 289 289 290 291 292 292 292 293 293 293 293 294 295 295 296 296 296 297 297 297 296 297 297 297 297 297 297 297 297 297 297 297 297 297 297 297 296 295 295 294 293 293 293 293 293 293 294 295 295 296 298
276 277 277 276 275 274 275 275 275 275 276 276 276 277 277 278 278 279 280 281 282 283 283 284 284 285 285 285 286 286 287 287 288 289 290 290 291 292 292 292 293 293 293 293 294 295 296 297 298 298 298 298 297 297 297 297 298 297 298 298 298 298 298 298 298 298 297 296 296 295 294 293 292 291 291 291 290 290 290 291 291 291 292 293 295
279 280 281 281 281 280 280 279 280 280 280 280 280 280 281 281 282 282 283 283 283 283 284 284 284 285 285 286 287 287 288 289 289 290 291 291 292 292 293 293 294 294 293 294 294 296 297 298 298 297 297 297 297 297 298 298 298 298 298 298 298 298 298 298 297 296 295 294 293 292 291 290 289 289 289 288 288 288 287 288 288 288 289 290 291
282 283 283 284 284 284 283 282 281 280 280 280 280 280 280 280 281 281 281 282 282 283 283 284 285 285 286 286 287 287 288 288 289 289 290 290 290 290 291 291 292 292 292 293 294 295 296 296 296 296 296 297 297 298 298 298 298 298 298 298 298 298 297 296 295 293 292 291 290 290 289 288 287 286 286 286 286 285 285 285 285 285 285 286 288
282 284 284 284 284 283 282 281 279 279 278 278 278 278 279 279 280 280 281 281 282 283 284 285 286 286 286 287 287 287 288 288 288 289 289 290 290 291 291 292 292 292 293 293 294 294 295 295 295 296 297 297 297 297 297 297 297 297 297 297 298 296 294 293 293 292 291 290 289 288 287 286 285 284 283 283 283 283 282 282 282 282 282 283 283
281 281 282 282 282 282 281 281 280 280 280 280 280 280 281 282 282 283 284 284 285 285 285 286 286 287 287 287 287 288 288 289 289 290 291 291 292 293 294 294 295 295 296 296 297 297 297 297 297 297 298 298 298 298 298 298 297 297 297 298 297 295 294 294 294 293 292 291 290 289 287 286 285 283 281 280 280 279 279 279 279 279 280 280 279
286 285 284 284 284 284 284 285 285 285 284 284 284 284 284 285 285 285 285 285 285 285 286 286 286 286 287 288 288 289 289 290 291 292 293 293 294 295 296 297 297 297 298 299 299 299 299 299 299 299 300 300 300 300 299 299 299 299 300 300 299 298 298 299 298 297 297 296 294 293 291 289 287 285 283 281 279 277 276 276 276 276 276 276 276
290 290 289 288 288 287 287 287 287 287 287 287 287 286 286 286 285 285 285 285 286 286 286 286 287 288 288 289 289 290 291 291 292 293 294 295 295 296 297 297 298 298 298 299 300 301 301 301 302 302 302 302 301 301 300 300 300 301 301 301 301 301 301 301 301 301 302 301 301 301 300 298 295 292 288 285 282 279 277 275 274 274 273 273 274
291 291 291 291 290 290 289 288 288 288 288 288 288 288 288 288 288 287 287 288 288 288 288 289 289 289 289 289 290 290 291 291 292 292 293 294 295 295 296 297 299 299 300 300 301 302 302 302 303 303 302 302 302 301 301 301 301 301 302 303 303 303 303 303 304 304 305 306 307 308 308 307 304 300 296 292 288 284 281 278 276 274 272 271 271
292 291 291 290 291 291 291 290 290 290 289 290 290 290 289 289 289 289 289 290 290 289 289 290 290 290 290 290 290 291 291 291 292 293 294 295 296 297 298 299 300 301 301 302 302 302 302 302 302 302 302 302 301 301 301 302 302 303 304 305 306 306 307 307 307 308 309 309 310 311 312 312 309 305 301 299 296 292 289 285 280 276 273 271 269
295 294 293 292 291 291 291 292 292 291 291 291 290 290 290 290 290 290 290 290 290 290 290 290 290 290 290 290 290 291 292 293 295 296 297 298 299 300 300 300 300 301 301 302 303 302 302 302 302 301 301 301 301 300 301 301 302 304 306 308 308 309 310 311 311 312 311 311 311 312 313 313 311 307 305 305 305 304 302 298 291 285 278 273 270
Height
5780 5781 5782 5782 5783 5783 5784 5784 5785 5785 5786 5786 5786 5787 5787 5787 5787 5788 5788 5788 5788 5788 5788 5788 5788 5788 5787 5787 5786 5786 5786 5785 5785 5784 5783 5783 5782 5781 5781 5780 5779 5778 5777 5776 5774 5773 5772 5770 5769 5767 5766 5764 5762 5761 5759 5757 5756 5754 5752 5750 5748 5747 5745 5743 5741 5738 5735 5733 5730 5727 5724 5720 5718 5715 5712 5708 5703 5698 5693 5687 5682 5676 5670 5665 5660
5778 5779 5780 5780 5781 5782 5782 5782 5783 5783 5784 5784 5785 5785 5785 5786 5786 5786 5786 5786 5787 5787 5787 5786 5786 5786 5786 5785 5785 5785 5784 5784 5783 5782 5782 5781 5780 5779 5778 5778 5777 5776 5775 5773 5772 5771 5770 5768 5766 5765 5763 5762 5760 5759 5757 5755 5754 5752 5750 5748 5746 5745 5743 5741 5738 5736 5732 5729 5726 5723 5720 5717 5714 5712 5709 5704 5699 5694 5689 5683 5677 5671 5666 5661 5656
5776 5777 5777 5778 5779 5780 5780 5781 5781 5781 5782 5782 5783 5783 5784 5784 5784 5784 5785 5785 5785 5785 5785 5785 5784 5784 5784 5784 5783 5783 5782 5782 5781 5780 5780 5779 5778 5777 5776 5775 5774 5773 5772 5771 5770 5768 5767 5766 5764 5762 5761 5759 5758 5756 5755 5753 5751 5750 5748 5746 5744 5742 5739 5737 5735 5732 5729 5726 5723 5720 5716 5713 5711 5708 5704 5700 5695 5690 5685 5679 5673 5667 5661 5656 5652
5774 5774 5775 5776 5777 5778 5778 5779 5779 5779 5780 5780 5781 5781 5782 5782 5782 5783 5783 5783 5783 5783 5783 5783 5782 5782 5782 5782 5782 5781 5780 5780 5779 5779 5778 5777 5776 5775 5774 5773 5772 5771 5770 5769 5767 5766 5764 5763 5762 5760 5758 5757 5755 5753 5752 5750 5748 5746 5744 5743 5741 5738 5736 5734 5731 5728 5726 5723 5720 5716 5713 5710 5708 5705 5700 5696 5691 5686 5680 5675 5668 5662 5657 5651 5647
5771 5772 5773 5774 5775 5776 5776 5777 5777 5778 5778 5778 5779 5779 5780 5780 5780 5781 5781 5781 5781 5781 5781 5781 5780 5780 5780 5780 5780 5779 5778 5778 5777 5776 5776 5775 5774 5773 5772 5771 5770 5768 5767 5766 5765 5764 5762 5760 5759 5757 5756 5754 5752 5750 5748 5747 5745 5743 5741 5739 5737 5735 5733 5730 5728 5725 5722 5719 5716 5713 5710 5707 5705 5701 5697 5693 5688 5683 5677 5670 5664 5659 5653 5647 5642
5768 5769 5770 5771 5772 5773 5774 5775 5775 5776 5776 5776 5777 5777 5777 5778 5778 5778 5778 5778 5779 5778 5778 5778 5778 5778 5778 5778 5777 5777 5776 5776 5775 5774 5773 5772 5771 5770 5769 5768 5767 5766 5765 5763 5762 5761 5759 5758 5756 5755 5753 5751 5749 5747 5746 5744 5742 5741 5739 5737 5735 5732 5730 5727 5724 5721 5718 5716 5713 5710 5707 5704 5702 5698 5694 5689 5684 5679 5674 5667 5660 5654 5649 5644 5639
5766 5767 5768 5769 5770 5771 5771 5772 5773 5774 5774 5774 5775 5775 5775 5775 5776 5776 5776 5776 5776 5776 5776 5776 5776 5776 5775 5775 5775 5774 5774 5773 5772 5771 5771 5770 5769 5768 5767 5766 5765 5763 5762 5761 5759 5758 5756 5755 5753 5751 5750 5748 5746 5745 5743 5741 5739 5738 5736 5734 5731 5729 5726 5723 5721 5718 5715 5712 5709 5706 5703 5701 5698 5694 5690 5686 5680 5675 5670 5665 5658 5652 5646 5641 5636
5763 5764 5765 5766 5767 5768 5769 5770 5771 5771 5772 5772 5772 5773 5773 5773 5773 5773 5773 5773 5774 5774 5774 5774 5773 5773 5773 5772 5772 5772 5771 5770 5770 5769 5769 5768 5767 5766 5765 5763 5762 5761 5760 5758 5757 5755 5753 5752 5750 5748 5746 5745 5743 5742 5740 5738 5736 5735 5733 5730 5728 5726 5723 5720 5717 5714 5712 5709 5705 5702 5700 5697 5694 5690 5686 5682 5677 5671 5665 5660 5656 5650 5644 5638 5632
5760 5761 5762 5763 5764 5765 5766 5767 5768 5768 5769 5769 5770 5770 5770 5770 5771 5771 5771 5771 5771 5771 5771 5771 5771 5771 5770 5770 5770 5769 5768 5768 5767 5767 5766 5765 5764 5763 5762 5761 5759 5758 5757 5755 5754 5752 5751 5749 5747 5745 5743 5741 5740 5738 5737 5735 5734 5732 5730 5727 5725 5722 5720 5717 5714 5711 5708 5705 5702 5699 5696 5693 5690 5686 5683 5678 5673 5667 5661 5656 5651 5646 5641 5635 5628
5758 5759 5759 5760 5761 5763 5764 5764 5765 5766 5766 5767 5767 5767 5768 5768 5768 5768 5768 5768 5768 5768 5768 5768 5768 5768 5768 5767 5767 5766 5765 5765 5765 5765 5764 5763 5761 5760 5759 5758 5757 5755 5754 5753 5751 5749 5748 5746 5744 5742 5740 5738 5737 5735 5733 5732 5730 5728 5726 5724 5721 5719 5716 5713 5710 5707 5705 5702 5698 5695 5692 5689 5686 5682 5679 5674 5669 5663 5657 5652 5648 5642 5638 5633 5626
5755 5756 5756 5757 5758 5760 5761 5761 5762 5762 5763 5764 5764 5765 5765 5765 5765 5766 5766 5766 5766 5766 5765 5765 5765 5765 5765 5765 5764 5763 5762 5762 5762 5762 5761 5760 5759 5758 5756 5755 5754 5752 5751 5750 5748 5747 5745 5743 5741 5739 5737 5735 5733 5731 5730 5729 5727 5725 5722 5720 5718 5715 5712 5709 5706 5703 5700 5698 5695 5691 5688 5685 5682 5678 5675 5670 5665 5659 5653 5648 5644 5639 5634 5630 5624
5752 5753 5754 5755 5756 5757 5758 5758 5759 5759 5760 5761 5761 5762 5762 5763 5763 5763 5763 5763 5763 5763 5763 5762 5762 5762 5762 5761 5761 5760 5760 5759 5758 5758 5758 5757 5756 5755 5753 5752 5751 5749 5748 5747 5745 5743 5742 5740 5738 5736 5734 5732 5730 5728 5726 5725 5724 5721 5719 5716 5714 5711 5708 5706 5703 5699 5696 5694 5691 5687 5684 5681 5678 5674 5670 5666 5661 5655 5649 5644 5639 5635 5630 5625 5620
5749 5750 5751 5753 5754 5755 5755 5755 5756 5756 5757 5758 5759 5759 5760 5760 5760 5760 5761 5761 5761 5760 5760 5760 5759 5759 5759 5758 5758 5757 5757 5756 5755 5754 5754 5754 5753 5752 5751 5749 5748 5746 5745 5743 5741 5740 5738 5737 5735 5733 5731 5730 5727 5725 5723 5722 5720 5718 5715 5712 5710 5707 5704 5701 5699 5695 5692 5689 5687 5683 5680 5677 5674 5670 5666 5662 5657 5652 5646 5640 5636 5631 5626 5621 5616
5747 5748 5749 5751 5752 5752 5752 5753 5753 5753 5754 5755 5756 5756 5757 5757 5757 5758 5758 5758 5758 5757 5757 5757 5756 5756 5755 5755 5755 5754 5754 5753 5752 5751 5750 5750 5749 5749 5747 5746 5744 5743 5741 5739 5738 5736 5735 5733 5732 5730 5728 5727 5725 5723 5720 5719 5717 5715 5712 5709 5706 5703 5700 5697 5694 5691 5688 5685 5682 5679 5676 5673 5670 5666 5661 5657 5653 5648 5642 5637 5633 5629 5623 5617 5612
5745 5746 5747 5748 5749 5750 5750 5750 5750 5751 5752 5753 5753 5754 5754 5754 5754 5755 5755 5755 5755 5754 5754 5753 5753 5753 5752 5752 5751 5751 5750 5750 5749 5748 5746 5746 5746 5745 5744 5742 5741 5739 5737 5736 5734 5733 5731 5729 5728 5727 5725 5723 5722 5720 5717 5715 5714 5712 5709 5706 5703 5700 5697 5694 5691 5688 5684 5681 5678 5676 5673 5669 5665 5661 5657 5652 5648 5644 5639 5634 5629 5625 5620 5615 5609
5743 5744 5745 5746 5747 5747 5747 5747 5747 5748 5749 5750 5750 5751 5751 5751 5751 5752 5752 5752 5752 5751 5751 5750 5750 5749 5749 5749 5748 5747 5747 5746 5746 5744 5743 5742 5742 5741 5740 5738 5737 5735 5733 5732 5731 5730 5728 5726 5724 5723 5721 5719 5718 5716 5714 5712 5710 5708 5705 5702 5699 5697 5694 5691 5689 5685 5682 5678 5675 5672 5669 5665 5661 5657 5653 5649 5645 5640 5635 5630 5625 5621 5617 5612 5606
5741 5742 5743 5743 5744 5744 5745 5744 5744 5745 5745 5746 5747 5748 5748 5748 5748 5748 5749 5749 5749 5748 5748 5747 5746 5746 5745 5745 5745 5744 5744 5743 5743 5741 5740 5739 5738 5737 5736 5734 5733 5731 5729 5728 5727 5726 5724 5723 5721 5719 5717 5716 5714 5712 5710 5707 5706 5704 5701 5698 5695 5693 5690 5688 5685 5683 5679 5675 5672 5669 5665 5662 5658 5654 5649 5645 5641 5636 5631 5627 5622 5618 5613 5609 5604
5739 5739 5739 5740 5741 5742 5742 5742 5742 5742 5742 5743 5744 5744 5745 5745 5745 5745 5745 5745 5745 5745 5744 5744 5743 5742 5742 5741 5741 5740 5740 5740 5739 5738 5737 5735 5734 5733 5732 5731 5729 5727 5726 5725 5724 5723 5721 5719 5718 5716 5714 5712 5710 5708 5705 5703 5701 5699 5696 5693 5691 5688 5685 5683 5681 5678 5675 5671 5668 5665 5662 5657 5654 5650 5645 5640 5635 5631 5627 5623 5619 5614 5609 5605 5601
5737 5736 5736 5737 5738 5739 5739 5739 5740 5740 5740 5740 5740 5740 5741 5741 5742 5742 5742 5742 5741 5741 5741 5740 5740 5739 5738 5737 5737 5736 5736 5736 5735 5734 5733 5732 5730 5729 5728 5727 5725 5724 5723 5722 5720 5719 5717 5716 5715 5712 5709 5708 5706 5704 5701 5698 5696 5694 5692 5689 5686 5684 5681 5679 5677 5674 5671 5668 5665 5661 5657 5653 5649 5645 5640 5636 5631 5626 5622 5618 5614 5610 5606 5601 5597
5735 5735 5734 5735 5737 5737 5736 5736 5737 5737 5737 5737 5736 5737 5737 5738 5738 5738 5738 5738 5737 5737 5737 5736 5736 5735 5734 5734 5733 5733 5732 5732 5731 5730 5729 5728 5726 5725 5724 5723 5722 5720 5719 5718 5716 5715 5714 5712 5711 5708 5705 5703 5701 5700 5698 5695 5692 5689 5687 5685 5682 5679 5677 5674 5672 5669 5666 5663 5660 5657 5653 5649 5645 5641 5637 5632 5627 5623 5619 5614 5610 5606 5603 5598 5594
5733 5734 5734 5736 5736 5735 5734 5733 5734 5734 5734 5733 5733 5733 5734 5734 5734 5734 5734 5733 5733 5732 5732 5732 5731 5731 5730 5730 5730 5729 5728 5728 5728 5727 5725 5723 5722 5721 5720 5719 5717 5716 5715 5714 5712 5711 5709 5708 5706 5704 5701 5698 5696 5694 5693 5691 5688 5685 5683 5681 5678 5675 5672 5670 5668 5665 5661 5658 5655 5652 5649 5645 5641 5637 5633 5628 5624 5619 5616 5612 5607 5603 5599 5595 5591
5730 5732 5733 5734 5734 5732 5731 5731 5731 5731 5731 5730 5729 5729 5729 5729 5729 5729 5729 5729 5728 5728 5728 5728 5727 5726 5726 5726 5726 5725 5725 5724 5724 5722 5720 5718 5718 5717 5716 5715 5713 5712 5711 5710 5708 5706 5705 5703 5702 5700 5697 5694 5691 5689 5687 5685 5683 5681 5678 5676 5674 5671 5668 5666 5664 5661 5657 5654 5651 5647 5644 5641 5637 5634 5630 5625 5620 5616 5612 5608 5604 5600 5596 5591 5588
5728 5728 5728 5729 5729 5728 5728 5728 5729 5728 5727 5726 5725 5725 5725 5724 5724 5724 5724 5725 5725 5725 5725 5724 5723 5722 5722 5721 5721 5721 5720 5720 5720 5718 5716 5714 5714 5713 5711 5710 5709 5708 5707 5705 5703 5702 5700 5698 5697 5695 5692 5690 5687 5685 5683 5681 5679 5676 5674 5672 5669 5666 5664 5662 5659 5656 5653 5650 5646 5643 5640 5637 5633 5629 5625 5621 5617 5612 5608 5604 5600 5596 5592 5588 5584
5726 5725 5725 5724 5724 5725 5725 5726 5725 5725 5724 5723 5722 5721 5720 5719 5720 5721 5722 5721 5721 5721 5720 5719 5718 5718 5717 5717 5716 5716 5715 5716 5716 5715 5712 5710 5710 5709 5707 5706 5705 5703 5702 5700 5698 5697 5695 5693 5692 5690 5688 5685 5683 5681 5679 5677 5674 5672 5669 5667 5664 5662 5659 5657 5654 5651 5648 5645 5642 5639 5636 5632 5629 5625 5620 5617 5613 5608 5605 5601 5597 5593 5589 5585 5580
5723 5723 5722 5721 5721 5722 5722 5723 5723 5723 5723 5722 5721 5719 5717 5717 5717 5719 5718 5717 5716 5716 5715 5715 5714 5713 5713 5712 5712 5712 5711 5711 5712 5711 5708 5707 5706 5705 5703 5702 5701 5699 5697 5695 5693 5691 5690 5688 5686 5685 5683 5680 5678 5676 5674 5672 5669 5667 5664 5662 5659 5657 5654 5652 5649 5647 5644 5641 5637 5635 5632 5628 5624 5620 5616 5612 5609 5605 5601 5598 5594 5590 5587 5582 5578
5720 5720 5718 5717 5717 5718 5718 5719 5719 5719 5718 5718 5716 5716 5715 5715 5715 5715 5713 5713 5714 5713 5712 5711 5709 5709 5709 5708 5708 5707 5706 5706 5707 5706 5704 5702 5701 5700 5699 5697 5695 5694 5692 5690 5688 5686 5684 5683 5681 5679 5677 5675 5673 5671 5669 5667 5664 5662 5659 5657 5654 5652 5649 5647 5644 5642 5639 5636 5633 5630 5627 5623 5620 5616 5613 5609 5605 5601 5598 5595 5591 5587 5584 5580 5576
5718 5717 5716 5714 5714 5715 5715 5715 5716 5715 5714 5713 5711 5711 5711 5712 5712 5711 5711 5711 5711 5711 5710 5707 5705 5705 5705 5704 5703 5702 5701 5700 5701 5701 5699 5698 5696 5694 5693 5692 5690 5688 5686 5684 5682 5680 5679 5677 5676 5674 5672 5670 5668 5666 5664 5662 5659 5657 5654 5652 5649 5647 5644 5641 5639 5637 5633 5630 5628 5625 5621 5618 5615 5612 5608 5605 5601 5598 5594 5591 5588 5584 5581 5577 5573
5715 5714 5713 5712 5713 5712 5712 5713 5713 5711 5710 5709 5707 5707 5707 5708 5707 5707 5708 5708 5707 5706 5705 5703 5701 5701 5701 5699 5697 5696 5695 5694 5695 5694 5694 5693 5691 5689 5687 5686 5684 5683 5681 5679 5677 5675 5674 5672 5671 5669 5667 5665 5663 5661 5658 5656 5654 5651 5649 5646 5644 5641 5638 5636 5634 5631 5628 5625 5623 5619 5616 5613 5610 5607 5604 5600 5597 5594 5590 5587 5584 5581 5577 5574 5570
5710 5709 5708 5709 5708 5707 5707 5708 5708 5706 5705 5704 5703 5703 5704 5703 5702 5703 5704 5704 5703 5702 5700 5698 5697 5696 5696 5694 5692 5691 5690 5689 5689 5688 5687 5687 5687 5685 5682 5680 5679 5677 5675 5673 5672 5671 5669 5667 5666 5664 5662 5660 5658 5655 5653 5650 5648 5646 5643 5640 5638 5636 5632 5630 5628 5625 5623 5620 5617 5614 5611 5608 5605 5602 5599 5596 5592 5589 5586 5583 5580 5577 5574 5571 5567
5706 5704 5705 5705 5704 5703 5702 5703 5703 5702 5702 5701 5700 5700 5700 5700 5699 5700 5700 5700 5699 5698 5697 5694 5692 5692 5691 5690 5688 5686 5685 5684 5683 5682 5681 5680 5680 5679 5677 5676 5674 5672 5670 5668 5668 5667 5665 5662 5660 5658 5656 5654 5652 5650 5647 5645 5643 5640 5638 5635 5632 5630 5627 5625 5622 5620 5617 5614 5611 5608 5606 5603 5600 5597 5594 5591 5588 5585 5582 5579 5576 5573 5570 5567 5564
5701 5700 5701 5701 5700 5699 5698 5698 5698 5697 5696 5696 5696 5696 5697 5697 5696 5696 5696 5695 5694 5693 5691 5689 5687 5687 5687 5686 5683 5682 5681 5679 5677 5676 5675 5674 5673 5672 5671 5670 5669 5667 5664 5663 5662 5660 5659 5657 5654 5652 5650 5648 5646 5643 5641 5639 5637 5635 5633 5630 5628 5625 5621 5619 5617 5614 5611 5608 5605 5603 5600 5597 5594 5592 5589 5586 5583 5581 5578 5575 5572 5569 5567 5564 5561
5697 5696 5696 5697 5697 5696 5695 5693 5693 5692 5691 5691 5691 5691 5691 5691 5691 5690 5690 5689 5688 5687 5686 5684 5682 5681 5681 5680 5678 5676 5675 5674 5672 5670 5669 5668 5667 5666 5664 5663 5662 5660 5659 5657 5655 5653 5652 5650 5648 5646 5644 5642 5640 5638 5635 5633 5631 5629 5627 5624 5622 5619 5616 5613 5610 5608 5605 5602 5600 5597 5594 5592 5589 5586 5584 5581 5579 5576 5573 5571 5568 5565 5563 5560 5557
5693 5693 5692 5692 5693 5692 5690 5689 5688 5688 5687 5687 5687 5687 5686 5686 5686 5685 5684 5683 5682 5681 5680 5678 5677 5676 5675 5674 5672 5671 5669 5668 5667 5665 5664 5662 5661 5660 5658 5657 5655 5653 5652 5650 5648 5646 5644 5642 5641 5639 5637 5634 5633 5631 5629 5627 5625 5623 5621 5618 5615 5613 5610 5607 5604 5601 5599 5596 5594 5591 5589 5586 5584 5581 5579 5576 5574 5572 5569 5566 5563 5561 5559 5556 5553
5688 5688 5688 5687 5687 5686 5685 5684 5684 5683 5682 5682 5682 5682 5680 5680 5680 5680 5678 5677 5676 5675 5674 5673 5671 5670 5669 5668 5666 5665 5664 5662 5661 5659 5658 5657 5655 5653 5652 5650 5648 5646 5645 5643 5640 5638 5636 5635 5633 5632 5630 5628 5626 5623 5621 5619 5617 5615 5613 5611 5609 5606 5603 5600 5598 5595 5593 5590 5587 5585 5583 5581 5578 5576 5574 5572 5569 5567 5564 5562 5559 5557 5554 5552 5550
5683 5683 5683 5682 5682 5681 5680 5679 5678 5678 5677 5676 5676 5676 5674 5673 5673 5673 5672 5670 5669 5668 5667 5666 5665 5664 5663 5661 5660 5658 5657 5656 5655 5653 5652 5650 5649 5647 5645 5643 5641 5639 5637 5635 5633 5631 5630 5628 5626 5624 5622 5620 5618 5616 5614 5612 5610 5608 5606 5604 5601 5599 5596 5594 5591 5589 5587 5585 5582 5579 5577 5575 5573 5570 5569 5567 5564 5562 5560 5557 5555 5552 5550 5548 5546
5678 5677 5677 5677 5676 5675 5674 5673 5673 5672 5671 5670 5669 5668 5667 5666 5666 5665 5664 5663 5662 5661 5660 5659 5658 5657 5656 5654 5652 5651 5650 5649 5648 5646 5645 5643 5641 5640 5638 5636 5634 5632 5630 5628 5626 5624 5622 5620 5618 5616 5614 5613 5611 5609 5607 5605 5603 5601 5598 5596 5594 5592 5590 5587 5585 5582 5581 5579 5577 5575 5572 5570 5568 5565 5563 5561 5559 5557 5555 5553 5550 5548 5546 5544 5542
5672 5672 5671 5671 5670 5670 5669 5668 5667 5666 5665 5664 5663 5662 5661 5660 5659 5658 5657 5656 5655 5654 5653 5652 5650 5650 5648 5646 5645 5644 5642 5641 5640 5638 5637 5635 5634 5632 5630 5628 5626 5624 5623 5621 5619 5617 5615 5613 5611 5609 5607 5606 5604 5603 5601 5599 5596 5594 5591 5589 5587 5585 5583 5581 5578 5575 5573 5571 5570 5569 5567 5565 5562 5560 5558 5556 5554 5552 5550 5548 5546 5544 5541 5539 5537
5665 5665 5664 5664 5663 5663 5662 5661 5661 5660 5659 5658 5656 5655 5654 5653 5652 5651 5650 5648 5647 5646 5645 5644 5643 5642 5640 5638 5637 5636 5635 5633 5632 5630 5629 5627 5626 5624 5622 5620 5618 5616 5614 5612 5611 5610 5608 5606 5604 5603 5600 5598 5596 5595 5593 5591 5588 5586 5584 5582 5580 5578 5576 5573 5571 5569 5567 5564 5563 5561 5560 5559 5557 5555 5552 5550 5548 5546 5545 5543 5540 5539 5537 5535 5533
5658 5657 5657 5656 5655 5655 5654 5654 5653 5653 5652 5650 5649 5648 5647 5646 5645 5643 5642 5640 5639 5638 5637 5636 5635 5634 5632 5630 5629 5628 5627 5625 5624 5622 5621 5619 5617 5616 5614 5613 5611 5609 5607 5605 5603 5602 5601 5599 5597 5595 5593 5591 5589 5587 5585 5583 5581 5579 5577 5575 5573 5571 5569 5567 5564 5563 5561 5559 5557 5555 5553 5551 5550 5549 5547 5544 5542 5540 5539 5537 5535 5533 5532 5530 5528
5652 5651 5650 5649 5649 5648 5647 5646 5645 5644 5643 5642 5641 5640 5638 5637 5636 5635 5634 5633 5631 5630 5629 5628 5627 5626 5624 5623 5622 5621 5619 5617 5616 5614 5613 5612 5610 5608 5606 5605 5604 5602 5600 5598 5596 5595 5594 5593 5591 5588 5586 5584 5582 5580 5578 5576 5574 5572 5570 5568 5566 5564 5562 5560 5558 5556 5554 5552 5551 5549 5547 5545 5543 5541 5540 5538 5536 5534 5533 5531 5530 5528 5526 5525 5523
5645 5645 5644 5643 5642 5641 5640 5639 5638 5637 5636 5635 5633 5632 5631 5630 5628 5627 5626 5625 5624 5623 5622 5621 5620 5619 5617 5615 5614 5613 5612 5610 5608 5607 5606 5604 5602 5601 5599 5597 5596 5596 5594 5591 5588 5587 5586 5585 5582 5580 5578 5576 5574 5572 5571 5569 5567 5565 5563 5561 5559 5557 5555 5553 5551 5549 5548 5546 5544 5542 5540 5538 5535 5534 5532 5531 5529 5527 5526 5525 5523 5522 5521 5520 5518
5638 5637 5636 5636 5635 5634 5633 5632 5631 5630 5629 5627 5626 5625 5623 5622 5621 5620 5619 5618 5616 5615 5614 5613 5612 5611 5610 5608 5606 5605 5604 5603 5601 5599 5598 5596 5595 5593 5591 5589 5589 5588 5586 5583 5581 5579 5579 5577 5575 5572 5570 5569 5567 5565 5563 5561 5559 5557 5555 5554 5552 5549 5547 5545 5544 5542 5541 5539 5536 5534 5532 5530 5528 5526 5524 5524 5522 5520 5519 5518 5517 5516 5515 5514 5513
5630 5629 5629 5628 5627 5626 5625 5624 5623 5622 5621 5619 5618 5617 5616 5615 5614 5613 5611 5610 5609 5608 5607 5606 5605 5604 5602 5601 5599 5598 5597 5595 5593 5591 5590 5588 5587 5586 5584 5582 5581 5579 5577 5575 5573 5572 5571 5570 5568 5565 5563 5561 5559 5557 5556 5554 5552 5550 5548 5546 5544 5542 5540 5538 5536 5534 5532 5530 5528 5526 5524 5522 5520 5518 5516 5515 5515 5513 5511 5510 5510 5509 5508 5507 5507
5623 5622 5621 5620 5620 5619 5618 5617 5616 5615 5613 5612 5611 5610 5609 5608 5607 5606 5604 5603 5602 5601 5600 5598 5597 5596 5595 5594 5592 5590 5589 5588 5586 5585 5583 5582 5580 5580 5578 5576 5574 5572 5570 5568 5566 5565 5565 5564 5561 5559 5557 5555 5553 5550 5548 5546 5544 5542 5540 5539 5537 5534 5532 5530 5528 5525 5523 5521 5519 5518 5516 5514 5513 5511 5508 5506 5506 5505 5503 5502 5502 5501 5501 5501 5500
5616 5615 5614 5614 5613 5612 5611 5610 5608 5607 5606 5605 5604 5603 5602 5600 5599 5598 5597 5596 5595 5594 5592 5591 5590 5589 5587 5586 5584 5583 5582 5581 5579 5578 5577 5575 5573 5572 5570 5569 5567 5564 5562 5560 5559 5558 5558 5557 5555 5552 5550 5548 5546 5543 5540 5539 5537 5534 5532 5532 5530 5526 5523 5520 5518 5516 5514 5511 5509 5508 5506 5504 5503 5502 5500 5498 5497 5495 5494 5493 5493 5493 5493 5493 5494
5610 5609 5608 5607 5606 5605 5603 5602 5601 5600 5599 5597 5596 5596 5594 5593 5592 5591 5590 5589 5588 5587 5585 5584 5583 5581 5580 5579 5577 5576 5575 5573 5572 5570 5569 5567 5565 5564 5562 5560 5558 5556 5554 5552 5550 5550 5550 5549 5547 5545 5543 5540 5538 5535 5532 5530 5528 5525 5524 5523 5521 5517 5513 5511 5509 5506 5504 5502 5499 5497 5496 5494 5492 5491 5490 5489 5487 5485 5484 5483 5484 5484 5485 5485 5486
5603 5602 5601 5600 5598 5597 5596 5595 5594 5593 5592 5590 5589 5589 5587 5586 5585 5584 5583 5582 5581 5580 5578 5577 5576 5575 5573 5572 5570 5569 5567 5566 5564 5562 5561 5559 5558 5556 5554 5552 5550 5549 5547 5544 5541 5540 5540 5539 5538 5537 5534 5532 5529 5526 5523 5520 5519 5516 5515 5514 5511 5507 5505 5503 5500 5497 5495 5493 5491 5488 5486 5484 5481 5479 5479 5478 5477 5475 5474 5474 5474 5475 5476 5476 5477
5596 5595 5594 5593 5592 5590 5590 5589 5587 5586 5585 5584 5583 5582 5581 5580 5579 5578 5576 5575 5574 5573 5571 5570 5569 5568 5566 5565 5563 5562 5560 5559 5557 5556 5554 5552 5551 5549 5548 5545 5543 5541 5540 5538 5535 5533 5531 5529 5529 5528 5526 5523 5520 5517 5514 5511 5509 5508 5506 5504 5502 5500 5497 5495 5492 5490 5487 5485 5483 5481 5478 5475 5472 5469 5468 5468 5467 5465 5464 5464 5464 5465 5466 5468 5469
5591 5589 5588 5587 5585 5584 5583 5582 5581 5580 5579 5577 5576 5575 5574 5573 5572 5570 5569 5568 5567 5566 5564 5563 5561 5560 5559 5558 5556 5555 5554 5552 5551 5549 5548 5546 5544 5543 5541 5539 5536 5533 5531 5530 5529 5526 5523 5521 5519 5518 5517 5514 5511 5509 5505 5502 5500 5500 5499 5496 5493 5492 5490 5488 5485 5483 5481 5478 5476 5474 5471 5468 5465 5461 5459 5458 5457 5455 5454 5454 5455 5456 5457 5459 5460
5586 5584 5582 5581 5580 5578 5577 5576 5574 5573 5572 5571 5570 5568 5567 5566 5565 5563 5562 5561 5560 5558 5557 5556 5554 5553 5552 5550 5549 5548 5547 5545 5544 5542 5541 5539 5537 5535 5533 5532 5530 5527 5524 5522 5521 5519 5516 5513 5511 5510 5508 5506 5503 5501 5498 5495 5492 5492 5492 5490 5487 5484 5483 5481 5479 5477 5474 5471 5469 5467 5464 5462 5459 5455 5452 5451 5450 5448 5447 5447 5447 5448 5449 5450 5452
5580 5578 5577 5575 5574 5572 5571 5570 5568 5567 5566 5565 5563 5562 5561 5559 5558 5557 5555 5554 5553 5551 5550 5549 5548 5546 5545 5544 5542 5541 5539 5538 5536 5535 5533 5531 5529 5527 5525 5524 5522 5520 5517 5514 5513 5511 5508 5505 5503 5501 5500 5498 5496 5493 5491 5489 5486 5485 5484 5483 5481 5478 5476 5474 5472 5471 5468 5466 5463 5461 5458 5456 5453 5451 5448 5446 5445 5444 5442 5441 5440 5441 5441 5442 5444